,,PA_Meas_PMT16A,,PR_Meas_QMR101_102,,RH_Meas_QMH101,,SR_Meas_QMS101,,TA_Meas_QMH101,,GenWind,,GenWind,
time,status,PA,status,PR,status,RH,status,SR,status,TA,status,DirAvg,status,SpdAvg,
2014-06-08, 07:00:04,VALID,915.112,VALID,0,VALID,95.4985,VALID,84.4487,VALID,19.1583,VALID,124,VALID,0.655078,
2014-06-08, 07:01:04,VALID,915.114,VALID,0,VALID,95.5595,VALID,87.0273,VALID,19.1973,VALID,125,VALID,0.539844,
2014-06-08, 07:02:04,VALID,915.135,VALID,0,VALID,95.5824,VALID,89.7134,VALID,19.2363,VALID,119,VALID,0.789063,
2014-06-08, 07:03:04,VALID,915.135,VALID,0,VALID,95.5748,VALID,92.3994,VALID,19.2948,VALID,115,VALID,0.527344,
2014-06-08, 07:04:04,VALID,915.171,VALID,0,VALID,95.5748,VALID,94.978,VALID,19.3143,VALID,115,VALID,0.536328,
2014-06-08, 07:05:04,VALID,915.145,VALID,0,VALID,95.5214,VALID,97.8789,VALID,19.3923,VALID,115,VALID,0.713281,
2014-06-08, 07:06:04,VALID,915.167,VALID,0,VALID,95.529,VALID,100.672,VALID,19.4718,VALID,125,VALID,0.908984,
2014-06-08, 07:07:04,VALID,915.181,VALID,0,VALID,95.4833,VALID,103.466,VALID,19.5093,VALID,126,VALID,0.652344,
2014-06-08, 07:08:04,VALID,915.162,VALID,0,VALID,95.3994,VALID,106.259,VALID,19.5678,VALID,140,VALID,1.04766,
2014-06-08, 07:09:04,VALID,915.181,VALID,0,VALID,95.247,VALID,109.053,VALID,19.6458,VALID,140,VALID,0.936719,
2014-06-08, 07:10:04,VALID,915.221,VALID,0,VALID,95.0335,VALID,112.061,VALID,19.7043,VALID,147,VALID,0.820313,
2014-06-08, 07:11:04,VALID,915.242,VALID,0,VALID,94.5304,VALID,114.747,VALID,19.8018,VALID,147,VALID,0.78125,
2014-06-08, 07:12:04,VALID,915.258,VALID,0,VALID,93.6994,VALID,117.218,VALID,19.8798,VALID,147,VALID,1.07344,
2014-06-08, 07:13:04,VALID,915.282,VALID,0,VALID,93.0514,VALID,120.012,VALID,19.9383,VALID,147,VALID,0.8875,
2014-06-08, 07:14:04,VALID,915.319,VALID,0,VALID,92.5711,VALID,122.59,VALID,20.0538,VALID,147,VALID,0.642187,
2014-06-08, 07:15:04,VALID,915.314,VALID,0,VALID,92.411,VALID,125.491,VALID,20.2114,VALID,147,VALID,0.565234,
2014-06-08, 07:16:04,VALID,915.337,VALID,0,VALID,92.2586,VALID,128.607,VALID,20.3479,VALID,147,VALID,0.328125,
2014-06-08, 07:17:04,VALID,915.318,VALID,0,VALID,91.5953,VALID,131.508,VALID,20.465,VALID,147,VALID,0.69375,
2014-06-08, 07:18:04,VALID,915.352,VALID,0,VALID,90.6653,VALID,134.301,VALID,20.6015,VALID,147,VALID,0.509375,
2014-06-08, 07:19:04,VALID,915.35,VALID,0,VALID,90.4518,VALID,137.202,VALID,20.7576,VALID,147,VALID,0.168359,
2014-06-08, 07:20:04,VALID,915.379,VALID,0,VALID,89.8801,VALID,140.318,VALID,20.873,VALID,131,VALID,0.408594,
2014-06-08, 07:21:04,VALID,915.365,VALID,0,VALID,89.5675,VALID,143.541,VALID,20.9706,VALID,132,VALID,0.4125,
2014-06-08, 07:22:04,VALID,915.397,VALID,0,VALID,88.8357,VALID,146.657,VALID,21.0291,VALID,131,VALID,0.425,
2014-06-08, 07:23:04,VALID,915.436,VALID,0,VALID,88.4545,VALID,150.095,VALID,21.1071,VALID,131,VALID,0.788281,
2014-06-08, 07:24:04,VALID,915.437,VALID,0,VALID,87.6693,VALID,153.426,VALID,21.0876,VALID,120,VALID,0.909375,
2014-06-08, 07:25:04,VALID,915.431,VALID,0,VALID,87.7226,VALID,156.219,VALID,21.0876,VALID,120,VALID,0.911328,
2014-06-08, 07:26:04,VALID,915.421,VALID,0,VALID,87.8065,VALID,159.335,VALID,21.0876,VALID,115,VALID,0.847656,
2014-06-08, 07:27:04,VALID,915.459,VALID,0,VALID,87.7684,VALID,162.344,VALID,21.0876,VALID,115,VALID,0.825781,
2014-06-08, 07:28:04,VALID,915.443,VALID,0,VALID,87.8599,VALID,165.889,VALID,21.1266,VALID,115,VALID,0.831641,
2014-06-08, 07:29:04,VALID,915.488,VALID,0,VALID,87.5473,VALID,169.327,VALID,21.1071,VALID,115,VALID,0.913672,
2014-06-08, 07:30:04,VALID,915.471,VALID,0,VALID,88.5079,VALID,172.658,VALID,21.1852,VALID,117,VALID,0.503516,
2014-06-08, 07:31:04,VALID,915.486,VALID,0,VALID,88.6527,VALID,175.666,VALID,21.2827,VALID,117,VALID,0.457812,
2014-06-08, 07:32:04,VALID,915.498,VALID,0,VALID,87.9056,VALID,178.997,VALID,21.3803,VALID,127,VALID,0.874219,
2014-06-08, 07:33:04,VALID,915.494,VALID,0,VALID,87.8599,VALID,181.898,VALID,21.4583,VALID,123,VALID,0.688672,
2014-06-08, 07:34:04,VALID,915.504,VALID,0,VALID,87.0823,VALID,185.121,VALID,21.4957,VALID,126,VALID,0.676172,
2014-06-08, 07:35:04,VALID,915.512,VALID,0,VALID,86.2513,VALID,188.344,VALID,21.4973,VALID,119,VALID,0.982422,
2014-06-08, 07:36:04,VALID,915.522,VALID,0,VALID,86.6401,VALID,191.675,VALID,21.4973,VALID,114,VALID,1.15313,
2014-06-08, 07:37:04,VALID,915.53,VALID,0,VALID,86.8155,VALID,194.898,VALID,21.4973,VALID,114,VALID,1.08359,
2014-06-08, 07:38:04,VALID,915.576,VALID,0,VALID,85.7329,VALID,198.121,VALID,21.4794,VALID,114,VALID,0.829687,
2014-06-08, 07:39:04,VALID,915.556,VALID,0,VALID,86.6096,VALID,201.345,VALID,21.4583,VALID,114,VALID,0.686719,
2014-06-08, 07:40:04,VALID,915.569,VALID,0,VALID,87.9361,VALID,204.568,VALID,21.5559,VALID,114,VALID,0.632422,
2014-06-08, 07:41:04,VALID,915.565,VALID,0,VALID,86.3657,VALID,207.791,VALID,21.6144,VALID,114,VALID,0.715234,
2014-06-08, 07:42:04,VALID,915.562,VALID,0,VALID,86.7773,VALID,210.907,VALID,21.712,VALID,114,VALID,0.760156,
2014-06-08, 07:43:04,VALID,915.612,VALID,0,VALID,86.2589,VALID,214.13,VALID,21.829,VALID,114,VALID,0.781641,
2014-06-08, 07:44:04,VALID,915.634,VALID,0,VALID,85.2908,VALID,217.568,VALID,21.9266,VALID,114,VALID,0.843359,
2014-06-08, 07:45:04,VALID,915.631,VALID,0,VALID,85.0773,VALID,220.792,VALID,21.9461,VALID,114,VALID,0.596484,
2014-06-08, 07:46:04,VALID,915.651,VALID,0,VALID,84.9325,VALID,224.23,VALID,21.9461,VALID,114,VALID,0.699219,
2014-06-08, 07:47:04,VALID,915.645,VALID,0,VALID,84.4903,VALID,227.56,VALID,21.9656,VALID,114,VALID,0.917578,
2014-06-08, 07:48:04,VALID,915.68,VALID,0,VALID,85.5042,VALID,230.891,VALID,21.9835,VALID,114,VALID,0.659766,
2014-06-08, 07:49:04,VALID,915.672,VALID,0,VALID,85.7939,VALID,234.007,VALID,22.0615,VALID,114,VALID,0.530078,
2014-06-08, 07:50:04,VALID,915.69,VALID,0,VALID,85.0468,VALID,237.338,VALID,22.1591,VALID,114,VALID,0.717578,
2014-06-08, 07:51:04,VALID,915.703,VALID,0,VALID,84.6123,VALID,241.098,VALID,22.1981,VALID,114,VALID,0.968359,
2014-06-08, 07:52:04,VALID,915.702,VALID,0,VALID,84.254,VALID,244.429,VALID,22.2779,VALID,114,VALID,0.597266,
2014-06-08, 07:53:04,VALID,915.741,VALID,0,VALID,84.0482,VALID,247.544,VALID,22.3347,VALID,114,VALID,0.426172,
2014-06-08, 07:54:04,VALID,915.727,VALID,0,VALID,84.8562,VALID,250.983,VALID,22.4323,VALID,114,VALID,0.625391,
2014-06-08, 07:55:04,VALID,915.752,VALID,0,VALID,84.3607,VALID,254.528,VALID,22.5884,VALID,114,VALID,0.671094,
2014-06-08, 07:56:04,VALID,915.758,VALID,0,VALID,82.4777,VALID,257.966,VALID,22.7836,VALID,114,VALID,0.700391,
2014-06-08, 07:57:04,VALID,915.773,VALID,0,VALID,78.91,VALID,261.512,VALID,22.9592,VALID,114,VALID,0.592188,
2014-06-08, 07:58:04,VALID,915.791,VALID,0,VALID,77.3396,VALID,264.842,VALID,23.0763,VALID,114,VALID,0.425391,
2014-06-08, 07:59:04,VALID,915.788,VALID,0,VALID,78.9405,VALID,268.066,VALID,23.1739,VALID,114,VALID,0.607422,
2014-06-08, 08:00:04,VALID,915.794,VALID,0,VALID,77.9952,VALID,271.181,VALID,23.2715,VALID,114,VALID,0.620703,
2014-06-08, 08:01:04,VALID,915.804,VALID,0,VALID,78.4068,VALID,274.405,VALID,23.4472,VALID,114,VALID,0.242188,
2014-06-08, 08:02:04,VALID,915.828,VALID,0,VALID,79.1387,VALID,277.735,VALID,23.6016,VALID,135,VALID,0.34375,
2014-06-08, 08:03:04,VALID,915.843,VALID,0,VALID,77.3929,VALID,280.421,VALID,23.465,VALID,150,VALID,1.04336,
2014-06-08, 08:04:04,VALID,915.835,VALID,0,VALID,79.1692,VALID,283.752,VALID,23.2538,VALID,150,VALID,0.664063,
2014-06-08, 08:05:04,VALID,915.844,VALID,0,VALID,80.1678,VALID,286.76,VALID,23.1154,VALID,151,VALID,0.844922,
2014-06-08, 08:06:04,VALID,915.856,VALID,0,VALID,80.6862,VALID,290.413,VALID,22.9592,VALID,151,VALID,0.933594,
2014-06-08, 08:07:04,VALID,915.863,VALID,0,VALID,82.3329,VALID,293.637,VALID,22.8616,VALID,151,VALID,0.675391,
2014-06-08, 08:08:04,VALID,915.836,VALID,0,VALID,82.5768,VALID,297.29,VALID,22.9219,VALID,150,VALID,0.830078,
2014-06-08, 08:09:04,VALID,915.861,VALID,0,VALID,82.3253,VALID,300.405,VALID,22.9007,VALID,128,VALID,0.911328,
2014-06-08, 08:10:04,VALID,915.882,VALID,0,VALID,81.8221,VALID,304.273,VALID,22.9007,VALID,145,VALID,0.844922,
2014-06-08, 08:11:04,VALID,915.875,VALID,0,VALID,81.1436,VALID,307.282,VALID,22.8616,VALID,148,VALID,0.663672,
2014-06-08, 08:12:04,VALID,915.9,VALID,0,VALID,81.5019,VALID,310.612,VALID,22.8209,VALID,160,VALID,1.00117,
2014-06-08, 08:13:04,VALID,915.876,VALID,0,VALID,80.8844,VALID,314.05,VALID,22.8226,VALID,163,VALID,0.698047,
2014-06-08, 08:14:04,VALID,915.877,VALID,0,VALID,80.8921,VALID,317.489,VALID,22.8014,VALID,163,VALID,1.09492,
2014-06-08, 08:15:04,VALID,915.906,VALID,0,VALID,81.4486,VALID,320.927,VALID,22.7233,VALID,163,VALID,0.75,
2014-06-08, 08:16:04,VALID,915.927,VALID,0,VALID,81.7078,VALID,324.043,VALID,22.7445,VALID,164,VALID,0.679297,
2014-06-08, 08:17:04,VALID,915.915,VALID,0,VALID,80.8235,VALID,327.266,VALID,22.7641,VALID,152,VALID,1.21094,
2014-06-08, 08:18:04,VALID,915.915,VALID,0,VALID,79.8477,VALID,330.382,VALID,22.6647,VALID,151,VALID,1.12969,
2014-06-08, 08:19:04,VALID,915.934,VALID,0,VALID,81.2961,VALID,333.497,VALID,22.6274,VALID,156,VALID,0.805078,
2014-06-08, 08:20:04,VALID,915.923,VALID,0,VALID,81.3723,VALID,337.15,VALID,22.6435,VALID,148,VALID,0.954687,
2014-06-08, 08:21:04,VALID,915.879,VALID,0,VALID,80.4499,VALID,340.588,VALID,22.8243,VALID,150,VALID,0.721094,
2014-06-08, 08:22:04,VALID,915.893,VALID,0,VALID,80.2517,VALID,343.704,VALID,22.9024,VALID,158,VALID,0.594141,
2014-06-08, 08:23:04,VALID,915.858,VALID,0,VALID,81.601,VALID,347.25,VALID,22.9592,VALID,138,VALID,0.603906,
2014-06-08, 08:24:04,VALID,915.852,VALID,0,VALID,80.8387,VALID,350.903,VALID,23.0941,VALID,138,VALID,0.503125,
2014-06-08, 08:25:04,VALID,915.844,VALID,0,VALID,80.3508,VALID,353.589,VALID,23.2875,VALID,139,VALID,0,
2014-06-08, 08:26:04,VALID,915.878,VALID,0,VALID,79.1234,VALID,357.134,VALID,23.5235,VALID,140,VALID,0.44375,
2014-06-08, 08:27:04,VALID,915.875,VALID,0,VALID,78.2925,VALID,360.143,VALID,23.6211,VALID,141,VALID,0.3625,
2014-06-08, 08:28:04,VALID,915.891,VALID,0,VALID,77.5073,VALID,363.581,VALID,23.8358,VALID,141,VALID,0.0613281,
2014-06-08, 08:29:04,VALID,915.878,VALID,0,VALID,76.4171,VALID,366.697,VALID,24.15,VALID,141,VALID,0,
2014-06-08, 08:30:04,VALID,915.908,VALID,0,VALID,75.1516,VALID,370.242,VALID,24.402,VALID,141,VALID,0.283203,
2014-06-08, 08:31:04,VALID,915.886,VALID,0,VALID,74.9153,VALID,373.358,VALID,24.6149,VALID,140,VALID,0.385547,
2014-06-08, 08:32:04,VALID,915.879,VALID,0,VALID,74.5494,VALID,376.904,VALID,24.773,VALID,138,VALID,0.334375,
2014-06-08, 08:33:04,VALID,915.89,VALID,0,VALID,75.1516,VALID,380.019,VALID,24.8707,VALID,137,VALID,0.196094,
2014-06-08, 08:34:04,VALID,915.866,VALID,0,VALID,73.2382,VALID,383.028,VALID,25.0679,VALID,102,VALID,1.075,
2014-06-08, 08:35:04,VALID,915.833,VALID,0,VALID,71.0807,VALID,385.284,VALID,24.9626,VALID,87,VALID,0.871094,
2014-06-08, 08:36:04,VALID,915.87,VALID,0,VALID,70.9969,VALID,388.937,VALID,24.8492,VALID,91,VALID,0.326172,
2014-06-08, 08:37:04,VALID,915.868,VALID,0,VALID,70.6691,VALID,392.16,VALID,24.8669,VALID,91,VALID,0.277344,
2014-06-08, 08:38:04,VALID,915.833,VALID,0,VALID,71.3018,VALID,395.491,VALID,24.9469,VALID,91,VALID,0.0902344,
2014-06-08, 08:39:04,VALID,915.867,VALID,0,VALID,69.8,VALID,399.036,VALID,25.0074,VALID,94,VALID,0.485938,
2014-06-08, 08:40:04,VALID,915.859,VALID,0,VALID,70.9588,VALID,401.937,VALID,24.945,VALID,102,VALID,0.238281,
2014-06-08, 08:41:04,VALID,915.888,VALID,0,VALID,73.1924,VALID,404.946,VALID,25.0855,VALID,103,VALID,0.527734,
2014-06-08, 08:42:04,VALID,915.886,VALID,0,VALID,72.7655,VALID,408.706,VALID,25.1226,VALID,103,VALID,0.201562,
2014-06-08, 08:43:04,VALID,915.914,VALID,0,VALID,71.5991,VALID,411.607,VALID,25.2593,VALID,103,VALID,0.512891,
2014-06-08, 08:44:04,VALID,915.889,VALID,0,VALID,69.8839,VALID,413.434,VALID,25.357,VALID,103,VALID,0.334766,
2014-06-08, 08:45:04,VALID,915.869,VALID,0,VALID,70.6843,VALID,416.334,VALID,25.2203,VALID,80,VALID,0.616406,
2014-06-08, 08:46:04,VALID,915.86,VALID,0,VALID,69.3578,VALID,419.987,VALID,25.0464,VALID,79,VALID,0.675781,
2014-06-08, 08:47:04,VALID,915.886,VALID,0,VALID,70.9054,VALID,423.318,VALID,24.8297,VALID,80,VALID,0.472656,
2014-06-08, 08:48:04,VALID,915.89,VALID,0,VALID,72.331,VALID,425.897,VALID,24.7321,VALID,80,VALID,0.534766,
2014-06-08, 08:49:04,VALID,915.856,VALID,0,VALID,72.735,VALID,428.905,VALID,24.5545,VALID,82,VALID,0.801172,
2014-06-08, 08:50:04,VALID,915.861,VALID,0,VALID,75.0373,VALID,431.484,VALID,24.4234,VALID,81,VALID,0.696875,
2014-06-08, 08:51:04,VALID,915.858,VALID,0,VALID,74.496,VALID,434.385,VALID,24.3026,VALID,80,VALID,0.741016,
2014-06-08, 08:52:04,VALID,915.845,VALID,0,VALID,74.4808,VALID,437.178,VALID,24.2654,VALID,80,VALID,0.496484,
2014-06-08, 08:53:04,VALID,915.844,VALID,0,VALID,74.3054,VALID,440.401,VALID,24.2672,VALID,81,VALID,0.866406,
2014-06-08, 08:54:04,VALID,915.847,VALID,0,VALID,75.7615,VALID,443.947,VALID,24.2245,VALID,80,VALID,0.752344,
2014-06-08, 08:55:04,VALID,915.854,VALID,0,VALID,75.6243,VALID,447.063,VALID,24.3044,VALID,80,VALID,0.653125,
2014-06-08, 08:56:04,VALID,915.875,VALID,0,VALID,74.5341,VALID,449.104,VALID,24.3435,VALID,80,VALID,0.648438,
2014-06-08, 08:57:04,VALID,915.84,VALID,0,VALID,74.2216,VALID,452.327,VALID,24.3416,VALID,80,VALID,0.508984,
2014-06-08, 08:58:04,VALID,915.84,VALID,0,VALID,74.3283,VALID,455.55,VALID,24.402,VALID,80,VALID,0.188281,
2014-06-08, 08:59:04,VALID,915.885,VALID,0,VALID,74.7171,VALID,458.237,VALID,24.4392,VALID,67,VALID,0.850391,
2014-06-08, 09:00:04,VALID,915.86,VALID,0,VALID,73.9243,VALID,461.03,VALID,24.4587,VALID,46,VALID,0.690625,
2014-06-08, 09:01:04,VALID,915.86,VALID,0,VALID,73.7184,VALID,463.501,VALID,24.4392,VALID,45,VALID,0.486719,
2014-06-08, 09:02:04,VALID,915.875,VALID,0,VALID,73.0704,VALID,465.972,VALID,24.3825,VALID,45,VALID,0.716797,
2014-06-08, 09:03:04,VALID,915.882,VALID,0,VALID,74.0996,VALID,469.733,VALID,24.3026,VALID,45,VALID,0.875781,
2014-06-08, 09:04:04,VALID,915.899,VALID,0,VALID,75.0983,VALID,473.708,VALID,24.2458,VALID,45,VALID,0.920703,
2014-06-08, 09:05:04,VALID,915.905,VALID,0,VALID,74.9534,VALID,476.501,VALID,24.1641,VALID,45,VALID,0.952344,
2014-06-08, 09:06:04,VALID,915.886,VALID,0,VALID,75.144,VALID,478.865,VALID,24.1659,VALID,45,VALID,0.696875,
2014-06-08, 09:07:04,VALID,915.876,VALID,0,VALID,75.022,VALID,481.551,VALID,24.1854,VALID,45,VALID,0.525391,
2014-06-08, 09:08:04,VALID,915.886,VALID,0,VALID,75.022,VALID,484.345,VALID,24.2245,VALID,45,VALID,0.573438,
2014-06-08, 09:09:04,VALID,915.845,VALID,0,VALID,74.4884,VALID,487.461,VALID,24.244,VALID,45,VALID,0.506641,
2014-06-08, 09:10:04,VALID,915.828,VALID,0,VALID,73.5888,VALID,490.039,VALID,24.363,VALID,45,VALID,0.491797,
2014-06-08, 09:11:04,VALID,915.83,VALID,0,VALID,72.3233,VALID,492.725,VALID,24.3983,VALID,45,VALID,0.795703,
2014-06-08, 09:12:04,VALID,915.799,VALID,0,VALID,71.2408,VALID,493.8,VALID,24.4997,VALID,46,VALID,1.05469,
2014-06-08, 09:13:04,VALID,915.772,VALID,0,VALID,71.1722,VALID,498.634,VALID,24.4978,VALID,45,VALID,0.864062,
2014-06-08, 09:14:04,VALID,915.767,VALID,0,VALID,70.0744,VALID,501.106,VALID,24.5564,VALID,45,VALID,0.866016,
2014-06-08, 09:15:04,VALID,915.781,VALID,0,VALID,71.6525,VALID,505.188,VALID,24.6131,VALID,45,VALID,0.320703,
2014-06-08, 09:16:04,VALID,915.794,VALID,0,VALID,71.965,VALID,507.445,VALID,24.8688,VALID,45,VALID,0.0636719,
2014-06-08, 09:17:04,VALID,915.791,VALID,0,VALID,70.791,VALID,510.883,VALID,25.1422,VALID,45,VALID,0.465234,
2014-06-08, 09:18:04,VALID,915.797,VALID,0,VALID,70.631,VALID,512.387,VALID,25.4351,VALID,50,VALID,0.971484,
2014-06-08, 09:19:04,VALID,915.795,VALID,0,VALID,68.5803,VALID,515.18,VALID,25.6499,VALID,53,VALID,0.127734,
2014-06-08, 09:20:04,VALID,915.803,VALID,0,VALID,68.0619,VALID,517.544,VALID,25.7066,VALID,45,VALID,0.575781,
2014-06-08, 09:21:04,VALID,915.777,VALID,0,VALID,68.4125,VALID,520.982,VALID,25.7476,VALID,46,VALID,0.333594,
2014-06-08, 09:22:04,VALID,915.789,VALID,0,VALID,67.2462,VALID,524.42,VALID,25.982,VALID,45,VALID,0.428125,
2014-06-08, 09:23:04,VALID,915.77,VALID,0,VALID,67.2385,VALID,526.784,VALID,26.0406,VALID,45,VALID,0.589844,
2014-06-08, 09:24:04,VALID,915.752,VALID,0,VALID,67.2995,VALID,529.255,VALID,25.98,VALID,45,VALID,0.415234,
2014-06-08, 09:25:04,VALID,915.73,VALID,0,VALID,67.391,VALID,530.974,VALID,25.9058,VALID,45,VALID,0.608594,
2014-06-08, 09:26:04,VALID,915.748,VALID,0,VALID,68.8166,VALID,535.272,VALID,25.6694,VALID,46,VALID,0.5,
2014-06-08, 09:27:04,VALID,915.762,VALID,0,VALID,70.1049,VALID,538.173,VALID,25.5327,VALID,46,VALID,0.707031,
2014-06-08, 09:28:04,VALID,915.743,VALID,0,VALID,70.9283,VALID,540.966,VALID,25.3179,VALID,46,VALID,0.863672,
2014-06-08, 09:29:04,VALID,915.731,VALID,0,VALID,69.9906,VALID,543.545,VALID,25.064,VALID,46,VALID,1.00898,
2014-06-08, 09:30:04,VALID,915.74,VALID,0,VALID,72.3843,VALID,545.801,VALID,24.9274,VALID,45,VALID,0.674219,
2014-06-08, 09:31:04,VALID,915.766,VALID,0,VALID,74.0462,VALID,548.272,VALID,24.8902,VALID,46,VALID,0.585156,
2014-06-08, 09:32:04,VALID,915.747,VALID,0,VALID,72.0565,VALID,549.454,VALID,24.8688,VALID,45,VALID,0.937891,
2014-06-08, 09:33:04,VALID,915.724,VALID,0,VALID,73.1619,VALID,552.785,VALID,24.8316,VALID,45,VALID,0.777344,
2014-06-08, 09:34:04,VALID,915.744,VALID,0,VALID,74.1758,VALID,554.826,VALID,24.7497,VALID,46,VALID,0.584375,
2014-06-08, 09:35:04,VALID,915.724,VALID,0,VALID,73.3601,VALID,556.223,VALID,24.7516,VALID,46,VALID,0.829297,
2014-06-08, 09:36:04,VALID,915.681,VALID,0,VALID,73.7337,VALID,561.917,VALID,24.8121,VALID,45,VALID,0.919141,
2014-06-08, 09:37:04,VALID,915.706,VALID,0,VALID,73.5355,VALID,561.595,VALID,24.8121,VALID,46,VALID,0.807422,
2014-06-08, 09:38:04,VALID,915.68,VALID,0,VALID,74.3817,VALID,566.215,VALID,24.8492,VALID,45,VALID,0.701953,
2014-06-08, 09:39:04,VALID,915.698,VALID,0,VALID,74.3512,VALID,568.793,VALID,24.8688,VALID,45,VALID,0.625,
2014-06-08, 09:40:04,VALID,915.676,VALID,0,VALID,74.2597,VALID,572.769,VALID,24.9664,VALID,46,VALID,0.689844,
2014-06-08, 09:41:04,VALID,915.67,VALID,0,VALID,73.6727,VALID,574.058,VALID,25.0445,VALID,45,VALID,0.549219,
2014-06-08, 09:42:04,VALID,915.707,VALID,0,VALID,73.1619,VALID,577.496,VALID,25.1245,VALID,45,VALID,0.703516,
2014-06-08, 09:43:04,VALID,915.676,VALID,0,VALID,73.7565,VALID,577.819,VALID,25.1812,VALID,45,VALID,0.462109,
2014-06-08, 09:44:04,VALID,915.661,VALID,0,VALID,72.4682,VALID,581.149,VALID,25.3374,VALID,45,VALID,0.422266,
2014-06-08, 09:45:04,VALID,915.681,VALID,0,VALID,72.1328,VALID,584.802,VALID,25.5327,VALID,45,VALID,0.485938,
2014-06-08, 09:46:04,VALID,915.681,VALID,0,VALID,69.6399,VALID,585.984,VALID,25.6499,VALID,45,VALID,1.34805,
2014-06-08, 09:47:04,VALID,915.679,VALID,0,VALID,71.4771,VALID,588.885,VALID,25.5132,VALID,45,VALID,0.633203,
2014-06-08, 09:48:04,VALID,915.665,VALID,0,VALID,71.4085,VALID,591.678,VALID,25.4937,VALID,46,VALID,0.347656,
2014-06-08, 09:49:04,VALID,915.655,VALID,0,VALID,72.7121,VALID,593.827,VALID,25.5523,VALID,46,VALID,0.70625,
2014-06-08, 09:50:04,VALID,915.664,VALID,0,VALID,71.7287,VALID,594.687,VALID,25.689,VALID,45,VALID,0.628125,
2014-06-08, 09:51:04,VALID,915.66,VALID,0,VALID,70.4022,VALID,597.265,VALID,25.7866,VALID,45,VALID,0.837109,
2014-06-08, 09:52:04,VALID,915.644,VALID,0,VALID,70.9588,VALID,600.489,VALID,25.7651,VALID,45,VALID,0.388281,
2014-06-08, 09:53:04,VALID,915.646,VALID,0,VALID,71.4009,VALID,600.489,VALID,25.7476,VALID,45,VALID,1.29609,
2014-06-08, 09:54:04,VALID,915.639,VALID,0,VALID,72.3462,VALID,607.472,VALID,25.6499,VALID,45,VALID,0.383203,
2014-06-08, 09:55:04,VALID,915.63,VALID,0,VALID,72.7579,VALID,608.976,VALID,25.7085,VALID,46,VALID,0.540234,
2014-06-08, 09:56:04,VALID,915.618,VALID,0,VALID,71.0426,VALID,611.77,VALID,25.7866,VALID,46,VALID,0.558984,
2014-06-08, 09:57:04,VALID,915.629,VALID,0,VALID,70.4099,VALID,617.142,VALID,25.9409,VALID,45,VALID,0.276563,
2014-06-08, 09:58:04,VALID,915.607,VALID,0,VALID,70.2269,VALID,618.539,VALID,26.0776,VALID,46,VALID,0.276172,
2014-06-08, 09:59:04,VALID,915.628,VALID,0,VALID,69.7695,VALID,622.407,VALID,26.3336,VALID,45,VALID,0.583594,
2014-06-08, 10:00:04,VALID,915.603,VALID,0,VALID,67.6502,VALID,623.266,VALID,26.4703,VALID,45,VALID,0.599219,
2014-06-08, 10:01:04,VALID,915.61,VALID,0,VALID,67.2157,VALID,621.225,VALID,26.275,VALID,45,VALID,0.947656,
2014-06-08, 10:02:04,VALID,915.619,VALID,0,VALID,67.6273,VALID,623.374,VALID,25.9214,VALID,46,VALID,1.76484,
2014-06-08, 10:03:04,VALID,915.619,VALID,0,VALID,70.5623,VALID,627.564,VALID,25.7261,VALID,45,VALID,0.696094,
2014-06-08, 10:04:04,VALID,915.634,VALID,0,VALID,70.3794,VALID,619.076,VALID,25.8628,VALID,45,VALID,0.505078,
2014-06-08, 10:05:04,VALID,915.63,VALID,0,VALID,67.208,VALID,632.614,VALID,25.8628,VALID,45,VALID,1.26172,
2014-06-08, 10:06:04,VALID,915.598,VALID,0,VALID,71.2256,VALID,632.399,VALID,25.8042,VALID,45,VALID,0.711719,
2014-06-08, 10:07:04,VALID,915.629,VALID,0,VALID,69.335,VALID,630.25,VALID,25.8628,VALID,45,VALID,1.28242,
2014-06-08, 10:08:04,VALID,915.616,VALID,0,VALID,70.2345,VALID,635.3,VALID,25.8433,VALID,45,VALID,0.967578,
2014-06-08, 10:09:04,VALID,915.59,VALID,0,VALID,70.2269,VALID,642.498,VALID,25.9995,VALID,45,VALID,1.15391,
2014-06-08, 10:10:04,VALID,915.594,VALID,0,VALID,67.6959,VALID,644.969,VALID,26.2534,VALID,45,VALID,0.629297,
2014-06-08, 10:11:04,VALID,915.582,VALID,0,VALID,67.2385,VALID,644.969,VALID,26.3511,VALID,46,VALID,0.687109,
2014-06-08, 10:12:04,VALID,915.586,VALID,0,VALID,67.33,VALID,648.3,VALID,26.4683,VALID,45,VALID,1.15586,
2014-06-08, 10:13:04,VALID,915.557,VALID,0,VALID,66.2551,VALID,649.911,VALID,26.4488,VALID,45,VALID,0.982031,
2014-06-08, 10:14:04,VALID,915.529,VALID,0,VALID,68.4811,VALID,652.06,VALID,26.2925,VALID,45,VALID,0.784766,
2014-06-08, 10:15:04,VALID,915.534,VALID,0,VALID,68.0237,VALID,655.821,VALID,26.273,VALID,45,VALID,1.5582,
2014-06-08, 10:16:04,VALID,915.526,VALID,0,VALID,67.4977,VALID,660.978,VALID,26.2925,VALID,45,VALID,0.860156,
2014-06-08, 10:17:04,VALID,915.504,VALID,0,VALID,66.3542,VALID,661.085,VALID,26.31,VALID,45,VALID,0.779688,
2014-06-08, 10:18:04,VALID,915.507,VALID,0,VALID,68.4964,VALID,662.052,VALID,26.2925,VALID,45,VALID,0.607813,
2014-06-08, 10:19:04,VALID,915.513,VALID,0,VALID,67.7264,VALID,663.986,VALID,26.2905,VALID,45,VALID,0.942969,
2014-06-08, 10:20:04,VALID,915.54,VALID,0,VALID,67.5282,VALID,665.168,VALID,26.3491,VALID,46,VALID,1.18984,
2014-06-08, 10:21:04,VALID,915.509,VALID,0,VALID,68.3363,VALID,668.177,VALID,26.3316,VALID,45,VALID,0.923047,
2014-06-08, 10:22:04,VALID,915.52,VALID,0,VALID,68.9004,VALID,671.937,VALID,26.4272,VALID,45,VALID,0.528125,
2014-06-08, 10:23:04,VALID,915.532,VALID,0,VALID,66.4838,VALID,674.945,VALID,26.5855,VALID,45,VALID,1.22031,
2014-06-08, 10:24:04,VALID,915.556,VALID,0,VALID,69.9143,VALID,684.293,VALID,26.5835,VALID,45,VALID,0.797656,
2014-06-08, 10:25:04,VALID,915.56,VALID,0,VALID,66.0493,VALID,686.119,VALID,26.566,VALID,45,VALID,1.26133,
2014-06-08, 10:26:04,VALID,915.6,VALID,0,VALID,67.3529,VALID,686.442,VALID,26.4858,VALID,45,VALID,0.470703,
2014-06-08, 10:27:04,VALID,915.532,VALID,0,VALID,65.9959,VALID,685.045,VALID,26.5855,VALID,45,VALID,0.787109,
2014-06-08, 10:28:04,VALID,915.537,VALID,0,VALID,65.4394,VALID,683.326,VALID,26.566,VALID,45,VALID,0.608594,
2014-06-08, 10:29:04,VALID,915.526,VALID,0,VALID,65.7443,VALID,684.293,VALID,26.4683,VALID,45,VALID,0.877344,
2014-06-08, 10:30:04,VALID,915.531,VALID,0,VALID,68.2296,VALID,684.508,VALID,26.4468,VALID,45,VALID,0.3625,
2014-06-08, 10:31:04,VALID,915.483,VALID,0,VALID,67.0327,VALID,687.194,VALID,26.603,VALID,45,VALID,0.638672,
2014-06-08, 10:32:04,VALID,915.476,VALID,0,VALID,66.4228,VALID,691.061,VALID,26.7223,VALID,45,VALID,0.958984,
2014-06-08, 10:33:04,VALID,915.511,VALID,0,VALID,66.1408,VALID,689.665,VALID,26.8785,VALID,45,VALID,0.518359,
2014-06-08, 10:34:04,VALID,915.451,VALID,0,VALID,66.9336,VALID,690.202,VALID,26.9351,VALID,45,VALID,0.383594,